Regional Weather Roundup
Issued by NWS

Home | Current Version | Previous Version | Text Only | Print | Product List | Glossary On
Versions: 1 2 3 4 5 6 7 8 9 10 11 12 13 14 15 16 17 18 19 20 21 22 23 24 25 26 27 28 29 30 31 32 33 34 35 36 37 38 39 40 41 42 43 44 45 46 47 48 49 50
000
ASUS43 KMPX 120510
RWRMN
WEATHER ROUNDUP FOR MINNESOTA
NATIONAL WEATHER SERVICE TWIN CITIES/CHANHASSEN MN
1100 PM CST MON DEC 11 2017


NOTE: "FAIR" INDICATES FEW OR NO CLOUDS BELOW 12,000 FEET WITH NO
SIGNIFICANT WEATHER AND/OR OBSTRUCTIONS TO VISIBILITY. N/A MEANS
CURRENT SKY AND/OR WEATHER CONDITIONS ARE NOT AVAILABLE.

MNZ060>063-068>070-120600-
   Twin Cities Metro

CITY           SKY/WX    TMP DP  RH WIND       PRES   REMARKS
TWIN CITIES    PTCLDY    18  11  74 NW21G28   30.22R WCI   1
ST PAUL        CLEAR     18  10  71 NW15      30.23R WCI   4
CRYSTAL        CLEAR     16   7  67 NW13      30.22R WCI   2
BLAINE         CLEAR     18  10  73 NW12      30.21R WCI   5
LAKEVILLE      CLEAR     18  12  79 NW12G17   30.21R WCI   5
EDEN PRAIRIE   PTCLDY    18  10  71 NW10G20   30.22R WCI   6
SOUTH ST PAUL  CLEAR     19  10  68 NW12G20   30.21R WCI   7
LAKE ELMO      FAIR      18   9  68 NW9       30.21R WCI   6
$$
MNZ001>005-007-008-013>017-022>024-027-028-120600-
   Northwest Minnesota

CITY           SKY/WX    TMP DP  RH WIND       PRES   REMARKS
BEMIDJI        CLOUDY    -1  -4  87 NW6       30.24S WCI -13
HALLOCK        CLOUDY     3   1  92 CALM      30.29F
ROSEAU         CLOUDY     3  -2  78 W3        30.26F
WARROAD        CLOUDY     0  -6  78 W3        30.25F
THIEF RVR FALL CLOUDY     1  -3  83 W3        30.29F
CROOKSTON      CLOUDY     0  -2  92 SW3       30.33F
FOSSTON        CLOUDY    -4  -8  84 CALM      30.28F
DETROIT LAKES  CLOUDY     5   3  92 N5        30.28F WCI  -4
MOORHEAD       CLOUDY     7   1  78 CALM      30.33F
PARK RAPIDS    CLOUDY     3  -2  79 NW9       30.23F WCI -12
MAHNOMEN       FAIR       0  -4  85 CALM      30.28F
$$
MNZ006-009>011-018-025>026-120600-
   North Central Minnesota

CITY           SKY/WX    TMP DP  RH WIND       PRES   REMARKS
BAUDETTE       CLOUDY     1  -2  87 W7        30.22F WCI -12
FLAG ISLAND    CLOUDY     1  -2  85 NW8       30.22F WCI -12
INTL FALLS     CLOUDY     1  -3  83 W6        30.20S WCI -10
WASKISH        CLOUDY     1  -2  85 W6        30.24F WCI -10
LONGVILLE      FLURRIES   5   1  85 NW6       30.22S WCI  -6
GRAND RAPIDS   MOCLDY     5   1  83 NW14      30.21S WCI -12
CRANE LAKE     MOCLDY     5   0  78 N7        30.20R WCI  -7
ORR            CLOUDY     5   0  78 NW10G16   30.15S WCI -10
COOK           CLOUDY     7   1  78 NW9       30.16F FOG     WCI  -7
WALKER         FAIR       3  -2  82 NW7       30.23F WCI -10
$$
MNZ012-019>021-037-120600-
   Northeast Minnesota

CITY           SKY/WX    TMP DP  RH WIND       PRES   REMARKS
DULUTH         MOCLDY     8   2  76 NW18      30.11R WCI -11
ELY            CLOUDY     7  -2  66 NW14G21   30.11S WCI -10
HIBBING        LGT SNOW   5   0  79 NW17      30.15S WCI -14
EVELETH        PTCLDY     6  -2  68 NW9G23    30.15R WCI  -8
DULUTH HARBOR  CLOUDY    14   7  73 NW14      30.20R WCI  -1
TWO HARBORS    CLOUDY    12   5  73 NW5       30.10F WCI   4
SILVER BAY     CLOUDY    10   1  67 NW7       30.09F WCI   0
GRAND MARAIS     N/A      9  -2  61 VRB5      30.12S WCI   1
G MARAIS ARPRT MOCLDY     1  -8  66 NW10G17   29.99S WCI -14
$$
MNZ029>031-032-039>041-046>048-054>057-064-120600-
   West Central Minnesota

CITY           SKY/WX    TMP DP  RH WIND       PRES   REMARKS
FERGUS FALLS   CLOUDY     5   1  85 N3        30.34F
WHEATON        CLOUDY     9   7  92 NW5       30.36F WCI   0
MORRIS         CLEAR     10   3  72 NW12      30.30F WCI  -4
ALEXANDRIA     CLEAR      7   2  80 NW10      30.27S WCI  -8
ELBOW LAKE     FAIR       7   3  85 N7        30.30F WCI  -5
WADENA         CLEAR      3   0  85 NW6       30.25F WCI  -8
GLENWOOD       CLEAR      7   3  85 NW9       30.27F WCI  -7
APPLETON       CLEAR     12   7  79 NW10      30.34S WCI  -1
BENSON         CLEAR     10   3  72 N7        30.32F WCI   0
ORTONVILLE     CLEAR     12   9  85 NW7       30.34F WCI   2
MADISON        CLEAR     16  10  79 NW9       30.35S WCI   4
WILLMAR        FAIR      10   7  85 NW10      30.30S WCI  -3
$$
MNZ033>034-036-042>043-049>051-058-059-120600-
   Central Minnesota

CITY           SKY/WX    TMP DP  RH WIND       PRES   REMARKS
ST CLOUD       CLEAR     10   6  84 NW13      30.24R WCI  -5
SAUK CENTRE    FAIR       7   2  81 NW9       30.27S WCI  -7
PAYNESVILLE    CLEAR      9   6  85 NW7       30.28R WCI  -2
AITKIN         FLURRIES   7   3  85 NW8       30.19S WCI  -6
PINE RIVER     CLOUDY     3   0  85 NW3       30.25F
BRAINERD       CLOUDY     8   2  76 NW10      30.23S WCI  -6
STAPLES        CLOUDY     3   0  85 NW8       30.24F WCI -10
LONG PRAIRIE   FAIR       7   1  78 W12       30.25F WCI  -9
LITTLE FALLS   CLEAR     10   1  67 NW5       30.25S WCI   2
LITCHFIELD     CLEAR     12   7  79 NW13G21   30.27S WCI  -3
BUFFALO        CLEAR     14   7  75 W10       30.26S WCI   1
MAPLE LAKE     CLEAR     14   9  79 NW9G20    30.26R WCI   2
HUTCHINSON     CLOUDY    13   8  79 NW15      30.27S WCI  -3
$$
MNZ037-044-045-052-053-120600-
   East Central Minnesota

CITY           SKY/WX    TMP DP  RH WIND       PRES   REMARKS
PRINCETON      CLEAR     12   7  79 W9        30.23R WCI   0
MORA           CLEAR     12   5  73 NW10G18   30.22R WCI  -1
CAMBRIDGE      CLEAR     16   7  67 NW7       30.22R WCI   6
RUSH CITY      PTCLDY    14   8  76 NW6       30.21R WCI   5
MOOSE LAKE     CLEAR     12   3  67 N5        30.17R WCI   4
HINCKLEY       FAIR      14   9  79 NW6       30.19R WCI   5
CLOQUET        CLEAR      9   1  72 NW12      30.14R WCI  -6
MCGREGOR       PTCLDY    10   5  79 NW8G18    30.19S WCI  -1
$$
MNZ071>073-080-081-089-090-097-098-120600-
   Southwest Minnesota

CITY           SKY/WX    TMP DP  RH WIND       PRES   REMARKS
MONTEVIDEO     CLEAR     12   7  79 N10       30.33S WCI  -1
GRANITE FALLS  CLEAR     14   9  78 NW15      30.34F WCI  -1
CANBY          CLEAR     14  11  90 NW5       30.35F WCI   6
MARSHALL       CLEAR     13   9  84 NW10      30.34R WCI   0
REDWOOD FALLS  CLEAR     13   6  74 NW15G23   30.30S WCI  -3
OLIVIA         CLEAR     12   9  85 NW13G18   30.29R WCI  -3
PIPESTONE      CLEAR     16  10  79 N10G17    30.30S WCI   3
WINDOM           N/A     14   1  57 NW22      30.27R WCI  -4
WORTHINGTON    CLEAR     14  10  84 N15       30.29R WCI  -1
JACKSON        PTCLDY    16   9  73 MISG      30.26S
TRACY          CLEAR     15  11  85 NW15      30.30S WCI   0
SLAYTON        CLEAR     14  11  88 NW15      30.30S WCI  -2
$$
MNZ065>067-074>077-082>085-091>093-120600-
   South Central Minnesota

CITY           SKY/WX    TMP DP  RH WIND       PRES   REMARKS
MANKATO        CLEAR     15  11  83 NW15      30.24R WCI   0
NEW ULM        CLEAR     12   7  79 NW17G24   30.27R WCI  -5
ST JAMES       CLEAR     12   9  85 NW17      30.28R WCI  -5
FAIRMONT       CLEAR     14   9  80 NW20G29   30.26R WCI  -3
GLENCOE        CLEAR     15  10  81 NW12      30.26R WCI   2
FARIBAULT      CLEAR     18  12  79 NW12G17   30.20S WCI   5
OWATONNA       CLEAR     18  14  86 NW14      30.19R WCI   4
WASECA         CLEAR     18  14  86 NW13      30.23R WCI   4
ALBERT LEA     CLEAR     18  12  79 NW13G20   30.19R WCI   4
$$
MNZ078>079-086>088-094>096-120600-
   Southeast Minnesota

CITY           SKY/WX    TMP DP  RH WIND       PRES   REMARKS
ROCHESTER      CLEAR     17  10  74 NW17      30.14R WCI   1
RED WING       CLEAR     19   7  58 NW8       30.18S WCI   9
STANTON        CLEAR     19  10  67 NW8       30.19R WCI   9
DODGE CENTER   CLEAR     18   9  68 NW15      30.15R WCI   3
WINONA           N/A     23  14  68 NW17G25   30.15R WCI   9
AUSTIN         CLEAR     19  10  68 N16G22    30.16R WCI   5
PRESTON        CLEAR     19  11  72 N18G25    30.12R WCI   3
$$
ABBREVIATIONS USED IN REMARKS
   TC - TEMPERATURES IN CELSIUS
  WCI - WIND CHILL INDEX
   HX - HEAT INDEX
  VSB - VISIBILITY
$$



USA.gov is the U.S. government's official web portal to all federal, state and local government web resources and services.